TITAN 3C TRANSTAGE DEB, 20102

Orbit data source: Space-Track

TITAN 3C TRANSTAGE DEB, 20102 is space debris in HEO originally from a launch on Tue, 21 Dec 1965 UTC launched from the Air Force Eastern Test Range (AFETR). Debris objects in space refer to the collection of defunct objects orbiting the Earth. Examples of debris include non-operational satellites, rocket bodies, and fragments generated from explosions, collisions, or faulty payload assembly.

Loading next visibility...
Identifier
20102, 1965-108AC
Orbit
HEO
Country
Flag of USUS
Related business
Manufacturer
Unknown
Mission
Spacecraft
Bus & Motor
Unknown
Mass
Unknown
Launch date (UTC)
1965-12-21 (60 years ago)
Launch vehicle
Unknown
Launch site
Air Force Eastern Test Range (AFETR)
Object type
Payload
Rocket body
Debris
Shape & HBR
Unknown shape, 0.1 m
Radar Cross Section
Small (<0.1 m²)

Expand to show TLE details & history
Last TLE update: 2 days ago

TLE from 2 days ago
0 TITAN 3C TRANSTAGE DEB
1 20102U 65108AC  26035.55820822 -.00000050  00000-0 -42661-3 0  9992
2 20102  26.5699 122.7619 6772078 115.4051   1.7438  2.75689745316877
Epoch: 2026-02-04T13:23Z
TLE epoch observation values (Epoch: 2026-02-04T13:23:49.190Z)
Latitude
20.86993°
Longitude
-82.16366°
Altitude
632.318 km
Speed
9.757 km/s
True Right ascension
16h 54m 03s
True Declination
20° 45' 13"
Sunlit
Object was in daylight at epoch
Visualization orbit readout
Latitude
Unknown
Longitude
Unknown
Altitude
Unknown
Speed
Unknown
Apparent Right ascension
Unknown
Apparent Declination
Unknown
Sunlit
N/A
Visualization observer readout
Local Sidereal Time
04:20:37
Azimuth
Unknown
Elevation
Unknown
Doppler factor
Unknown
Orbital elements
Apogee altitude
29,661.581 km
Perigee altitude
557.998 km
Semi-major axis
21,487.927 km
Eccentricity
0.67721
Inclination
26.5699°
RAAN
122.7619°
Arg. of periapsis
115.4051°
True anomaly
12.23857°
Mean anomaly
1.7438°
Eccentric anomaly
5.38561°
Mean motion
0.68905 °/min
Orbital period
522.46 mins
BSTAR
-0.00042661
Loading maneuver chart data...
Computing Atmospheric mass density...

Documentation

Showing up to 5 results
|